• Bienvenue sur Pilotes Québec!
  • Bienvenue sur le site de Pilotes Québec, la nouvelle communauté des pilotes et aviateurs du Québec.
  • L'image de cette semaine nous vient de Denis Morissette!  La photo a été prise à Miguasha, en Gaspésie, lors d'un atterrissage par bon vent de travers et fort vent rabattant en finale.
  • Calendrier des activités
  • sujets récents au forum...
  • Les nouvelles en bref...

Connexion


J'ai oublié mon mot de passe
Renvoyer l'e-mail de confirmation
 

Publicité

Vous aimeriez afficher une publicité pour joindre la communauté des pilotes professionnels et privé du Québec?  Cliquez ici pour en savoir plus!

Conditions actuelles

Click for Quebec, Quebec Forecast

METAR - Québec


2015/07/03 20:00
CYQB 032000Z 27013KT 30SM SCT060 BKN240 25/09 A2983 RMK SC3CI3 SLP103 DENSITY ALT 1600FT

TAF - Québec


2015/07/03 18:42
TAF CYQB 031738Z 0318/0418 26012G22KT P6SM SCT060
BECMG 0323/0401 24010KT
BECMG 0403/0405 24005KT
FM041600 24012KT P6SM FEW050
RMK NXT FCST BY 040000Z